x

Buoy F01 - West Penobscot Bay (44033) Wave Buoy

7:04 - Fri 26th Dec 2014 All times are EST. -5 hours from GMT.

  • Sig Wave height 2.0ft
  • Peak Period 6s
  • Wind
    18mph, 20mph gusts
  • Sea Temp 44°f
  • Ar Temp 43°f
  • Sea Pressure 1013.5mb
  • Buoy F01 - West Penobscot Bay
  • Buoy F01 - West Penobscot Bay

More Historic Weather Station data

Upgrade to MSW Pro to gain access to the past 30 days of data for over 8000 Wavebouys and Weather Stations around the globe.

Join Pro

Comparision Forecast

View Surf forecast
   
Sex 12/26 7:04 2ft 6s 18 20 mph 1013.5mb 44f 43f
6:04 1ft 3s 16 20 mph 1013.2mb 44f 43f
5:04 1.6ft 5s 18 22 mph 1011.9mb 44f 43f
4:04 2.5ft 8s 18 22 mph 1010.9mb 44f 43f
3:04 3.5ft 8s 16 18 mph 1011mb 44f 42f
2:04 3ft 8s 16 20 mph 1010.6mb 44f 43f
1:04 3.5ft 8s 9 11 mph 1009.5mb 44f 43f
12:04 3ft 8s 16 20 mph 1008.1mb 44f 44f
Qui 12/25 11:04 3ft 8s 18 22 mph 1007.3mb 44f 44f
10:04 2.5ft 6s 16 20 mph 1006.7mb 44f 44f
9:04 3ft 8s 13 16 mph 1005.6mb 44f 45f
8:04 3ft 6s 13 16 mph 1004.7mb 44f 45f
7:04 3ft 6s 13 16 mph 1003.4mb 44f 46f
6:04 3ft 6s 16 18 mph 1001.8mb 44f 46f
5:04 3.5ft 8s 9 11 mph 1001.1mb 44f 46f
4:04 3.5ft 8s 9 11 mph 999.5mb 44f 47f
3:04 3.5ft 6s 13 18 mph 998mb 44f 49f
2:04 4.5ft 8s 16 20 mph 996.5mb 44f 49f
1:04 4.5ft 8s 16 22 mph 995.3mb 44f 48f
12:04 5ft 8s 18 27 mph 995mb 44f 47f
11:04 5ft 6s 20 25 mph 994.8mb 44f 48f
10:04 6ft 8s 25 34 mph 995.1mb 44f 50f
9:04 4.5ft 8s 18 27 mph 995.5mb 44f 49f
8:04 5ft 8s 18 20 mph 996.4mb 44f 49f
7:04 4.5ft 8s 11 13 mph 995.5mb 43f 48f
6:04 4.5ft 6s 11 13 mph 996.8mb 43f 47f
5:04 4.5ft 8s 11 13 mph 997mb 42f 48f
4:04 4.5ft 6s 11
mph
998mb 43f 47f
3:04 4.5ft 6s 13 16 mph 998.1mb 43f 50f
2:04 4.5ft 5s 13 20 mph 998.4mb 43f 50f
1:04 5ft 5s 20 25 mph 998.6mb 43f 51f
12:04 4ft 5s 20 22 mph 999.8mb 43f 50f
Qua 12/24 11:04 2.5ft 8s 9 11 mph 1001.6mb 43f 48f
10:04 2.5ft 6s 4 7 mph 1003.3mb 42f 48f
9:04 2.5ft 8s 2 4 mph 1005.2mb 42f 47f
8:04 3ft 8s 4
mph
1006.9mb 42f 46f
7:04 3ft 8s 9 11 mph 1008.3mb 42f 46f
6:04 3ft 8s 9 11 mph 1009.2mb 42f 46f
5:04 3ft 8s 7
mph
1010.4mb 42f 44f
4:04 3.5ft 8s 7
mph
1011.6mb 42f 44f
3:04 3ft 8s 7 9 mph 1012.7mb 42f 44f
2:04 3.5ft 8s 7 9 mph 1013mb 42f 44f
1:04 3.5ft 6s 9
mph
1014.2mb 41f 43f
12:04 3ft 8s 9
mph
1015.7mb 41f 43f
11:04 3ft 8s 11 16 mph 1016.4mb 42f 43f
10:04 3ft 8s 11 16 mph 1018.1mb 42f 43f
9:04 3.5ft 8s 11 16 mph 1019mb 42f 42f
8:04 3.5ft 6s 11 13 mph 1020mb 42f 42f
7:04 4ft 8s 11 13 mph 1021mb 42f 40f
6:04 4ft 8s 11 13 mph 1021.1mb 42f 40f
5:04 3.5ft 8s 11 13 mph 1020.7mb 42f 40f
4:04 4ft 8s 16 18 mph 1020.5mb 43f 40f
3:04 3.5ft 8s 16 18 mph 1021.9mb 43f 40f
2:04 3.5ft 8s 13 16 mph 1022.2mb 44f 40f
1:04 4ft 8s 13 16 mph 1022.3mb 43f 40f
12:04 3.5ft 8s 13 16 mph 1022.2mb 43f 40f
Ter 12/23 11:04 3.5ft 8s 13 18 mph 1022.7mb 43f 40f
10:04 4ft 8s 13 16 mph 1022.9mb 43f 40f
9:04 4ft 8s 13 16 mph 1024mb 43f 40f
7:04 4.5ft 6s 16 18 mph 1024mb 43f 41f
6:04 4.5ft 8s 13 16 mph 1024.8mb 43f 41f
5:04 3.5ft 8s 13 16 mph 1024.6mb 43f 41f
4:04 3.5ft 6s 11 13 mph 1024.2mb 44f 41f
9:04 4ft 6s 16 18 mph 1028mb 43f 37f
8:04 4.5ft 5s 16 18 mph 1028.3mb 43f 38f
7:04 4ft 6s 18 22 mph 1027.5mb 43f 39f
6:04 4ft 5s 18 22 mph 1027.4mb 43f 41f
5:04 3.5ft 5s 18 20 mph 1027.7mb 43f 41f
4:04 3ft 5s 18 22 mph 1026.6mb 43f 42f
3:04 3ft 5s 16 20 mph 1027mb 44f 42f
2:04 2.5ft 5s 13 18 mph 1027.3mb 44f 42f
1:04 2.5ft 5s 16 20 mph 1026.4mb 44f 42f
12:04  -   -  18 22 mph 1026.7mb 44f 42f
Seg 12/22 11:04 2.5ft 6s 13 18 mph 1027.5mb 43f 43f
10:04 2.5ft 8s 16 18 mph 1027.4mb 43f 42f
9:04 2ft 6s 9 11 mph 1027.7mb 42f 40f
8:04 2ft 3s 11
mph
1028.5mb 42f 39f
7:04 2.5ft 8s 11 13 mph 1028.6mb 42f 38f
6:04 2.5ft 8s 13 16 mph 1028.3mb 44f 38f
5:04 2ft 4s 13 16 mph 1028.1mb 44f 38f
4:04 2ft 5s 11 13 mph 1028.6mb 44f 38f
3:04 1.3ft 5s 11 13 mph 1028.5mb 45f 38f
2:04 1.3ft 6s 7 9 mph 1027.8mb 44f 37f